Home   Weather   Syracuse   Past weeks

Flag for USA Past Weather in Syracuse, New York, USA — Yesterday and Last 2 Weeks

Now
48 °F

Mostly cloudy.


Feels Like: 44 °F
Forecast: 33 / 47 °F
Wind: 9 mph from Northwest

Location: Syracuse Hancock International Airport

Current Time: Feb 27, 2017 at 5:55:40 pm

Latest Report: Feb 27, 2017 at 4:54 pm


Visibility: 10 mi

Pressure: 30.24 "Hg

Humidity: 44%

Dew Point: 27 °F

Location of SyracuseLocation

Past Weather in Syracuse — Graph

°F

Syracuse Temperature Yesterday

Maximum temperature yesterday: 33 °F (at 12:54 pm)
Minimum temperature yesterday: 27 °F (at 9:54 am)
Average temperature yesterday: 30 °F

High & Low Weather Summary for the Past Weeks

 TemperatureHumidityPressure
High68 °F (Feb 23, 2:54 pm)100% (Feb 12, 3:13 pm)30.39 "Hg (Feb 12, 3:13 pm)
Low18 °F (Feb 17, 11:54 pm)32% (Feb 27, 2:54 pm)29.36 "Hg (Feb 25, 11:54 am)
Average36 °F76%29.81 "Hg
* Reported Feb 12 3:13 pm — Feb 27 3:54 pm, Syracuse, Weather by CustomWeather, © 2017

Note: Actual official high and low records may vary slightly from our data, if they occured in-between our weather recording intervals... More about our weather records

Advertising

Syracuse Weather History for the Previous 24 Hours

Scroll right to see more
 ConditionsComfort  
Time TempWeatherWind HumidityBarometerVisibility
3:54 pm
Mon, Feb 27
51 °FOvercast.20 mph33%30.22 "Hg10 mi
2:54 pm52 °FPartly sunny.16 mph32%30.21 "Hg10 mi
1:54 pm50 °FBroken clouds.13 mph33%30.22 "Hg10 mi
12:54 pm50 °FScattered clouds.16 mph35%30.23 "Hg10 mi
11:54 am49 °FScattered clouds.20 mph36%30.25 "Hg10 mi
10:54 am47 °FScattered clouds.17 mph37%30.24 "Hg10 mi
9:54 am45 °FPassing clouds.17 mph38%30.24 "Hg10 mi
8:54 am42 °FPartly sunny.17 mph39%30.23 "Hg10 mi
7:54 am38 °FMostly cloudy.17 mph43%30.22 "Hg10 mi
6:54 am37 °FScattered clouds.16 mph42%30.18 "Hg10 mi
5:54 am36 °FPassing clouds.16 mph44%30.15 "Hg10 mi
4:54 am35 °FPassing clouds.15 mph48%30.15 "Hg10 mi
3:54 am35 °FPassing clouds.16 mph48%30.13 "Hg10 mi
2:54 am34 °FPassing clouds.20 mph50%30.12 "Hg10 mi
1:54 am33 °FClear.14 mph52%30.12 "Hg10 mi
12:54 am33 °FPassing clouds.14 mph52%30.11 "Hg10 mi
11:54 pm
Sun, Feb 26
32 °FPassing clouds.13 mph54%30.11 "Hg10 mi
10:54 pm32 °FOvercast.13 mph54%30.12 "Hg10 mi
9:54 pm30 °FPassing clouds.7 mph61%30.12 "Hg10 mi
8:54 pm29 °FClear.5 mph61%30.11 "Hg10 mi
7:54 pm29 °FClear.7 mph64%30.10 "Hg10 mi
6:54 pm30 °FPassing clouds.7 mph59%30.09 "Hg10 mi
5:54 pm31 °FPassing clouds.10 mph57%30.10 "Hg10 mi
Weather by CustomWeather, © 2017

See weather overviewHow to use our weather pages